Nenana, AK

2:31 PM AKDT on May 25, 2017 (GMT -0800)
Nenana Municipal

Weather History for PANN - January, 2013

Change the Weather History Date:

Thursday, January 3, 2013

  Actual Average Record
Temperature  
Mean Temperature 36 °F -  
Max Temperature 46 °F 3 °F 52 °F (1985)
Min Temperature 27 °F -16 °F -51 °F (2009)
Degree Days  
Heating Degree Days 28    
Moisture  
Dew Point 16 °F    
Average Humidity 58    
Maximum Humidity 90    
Minimum Humidity 49    
Precipitation  
Precipitation 0.24 in - - ()
Sea Level Pressure  
Sea Level Pressure 29.63 in    
Wind  
Wind Speed 13 mph (ENE)    
Max Wind Speed 17 mph    
Max Gust Speed 24 mph    
Visibility 10 miles    
Events Rain    
Averages and records for this station are not official NWS values.
T = Trace of Precipitation, MM = Missing Value Source: NWS Daily Summary

Daily Weather History Graph

Daily Weather History Graph

Search for Another Location

Airport or City:

Trip Planner

Search our weather history database for the weather conditions in past years. The results will help you decide how hot, cold, wet, or windy it might be!

Date:

Astronomy

Jan. 03, 2013 Rise Set
Actual Time 10:51 AM AKST 3:11 PM AKST
Civil Twilight 9:33 AM AKST 4:29 PM AKST
Nautical Twilight 8:24 AM AKST 5:37 PM AKST
Astronomical Twilight 7:24 AM AKST 6:38 PM AKST
Moon No Moon Rise 11:19 AM AKST (1/3)
Length of Visible Light 6h 55m
Length of Day
4h 19m
Waning Gibbous, 64% of the Moon is Illuminated
Jan 3
Waning Gibbous
Jan 4
Last Quarter
Jan 11
New
Jan 18
First Quarter
Jan 26
Full

Hourly Weather History & Observations

Time (AKST) Temp. Windchill Dew Point Humidity Pressure Visibility Wind Dir Wind Speed Gust Speed Precip Events Conditions
12:53 AM 26.1 °F 14.0 °F 15.1 °F 63% 29.53 in 10.0 mi East 15.0 mph - N/A   Clear
1:53 AM 26.1 °F 16.2 °F 15.1 °F 63% 29.53 in 10.0 mi East 10.4 mph - N/A   Clear
3:53 AM 28.0 °F 17.0 °F 15.1 °F 58% 29.55 in 10.0 mi ENE 13.8 mph - N/A   Clear
4:53 AM 28.9 °F 17.7 °F 16.0 °F 58% 29.55 in 10.0 mi East 15.0 mph - N/A   Clear
5:53 AM 28.9 °F 19.2 °F 15.1 °F 56% 29.55 in 10.0 mi East 11.5 mph - N/A   Clear
6:53 AM 28.9 °F 19.2 °F 15.1 °F 56% 29.57 in 10.0 mi East 11.5 mph - N/A   Clear
7:53 AM 28.9 °F 19.8 °F 15.1 °F 56% 29.58 in 10.0 mi East 10.4 mph - N/A   Clear
8:53 AM 28.9 °F 18.2 °F 15.1 °F 56% 29.59 in 10.0 mi East 13.8 mph - N/A   Clear
9:53 AM 28.9 °F 18.2 °F 15.1 °F 56% 29.60 in 10.0 mi East 13.8 mph - N/A   Clear
10:53 AM 28.9 °F 19.8 °F 14.0 °F 54% 29.61 in 10.0 mi East 10.4 mph - N/A   Clear
11:53 AM 28.9 °F 21.1 °F 14.0 °F 54% 29.63 in 10.0 mi East 8.1 mph - N/A   Clear
12:53 PM 28.0 °F 19.3 °F 14.0 °F 56% 29.64 in 10.0 mi East 9.2 mph - N/A   Clear
1:53 PM 28.9 °F 19.2 °F 12.9 °F 51% 29.63 in 10.0 mi East 11.5 mph - N/A   Clear
2:53 PM 28.0 °F 16.5 °F 12.0 °F 51% 29.63 in 10.0 mi ENE 15.0 mph - N/A   Clear
3:53 PM 28.0 °F 16.1 °F 12.0 °F 51% 29.63 in 10.0 mi ENE 16.1 mph - N/A   Clear
4:53 PM 28.0 °F 15.7 °F 10.9 °F 49% 29.62 in 10.0 mi East 17.3 mph - N/A   Clear
5:53 PM 27.0 °F 15.6 °F 10.9 °F 51% 29.61 in 10.0 mi ENE 13.8 mph - N/A   Clear
6:53 PM 27.0 °F 16.1 °F 10.9 °F 51% 29.62 in 10.0 mi East 12.7 mph - N/A   Mostly Cloudy
7:53 PM 27.0 °F 15.6 °F 12.0 °F 53% 29.61 in 10.0 mi East 13.8 mph - N/A   Mostly Cloudy
8:53 PM 27.0 °F 15.2 °F 12.0 °F 53% 29.60 in 10.0 mi ENE 15.0 mph - N/A   Overcast
9:53 PM 27.0 °F 14.7 °F 12.0 °F 53% 29.60 in 10.0 mi ENE 16.1 mph - N/A   Overcast
10:53 PM 27.0 °F 16.1 °F 10.9 °F 51% 29.61 in 10.0 mi ENE 12.7 mph 21.9 mph N/A   Overcast
11:53 PM 27.0 °F 15.6 °F 10.9 °F 51% 29.61 in 10.0 mi ENE 13.8 mph 24.2 mph N/A   Scattered Clouds